Naples, FL

9:27 PM EST on December 09, 2016 (GMT -0500)
Naples Municipal

Weather History for KAPF - January, 2014

Change the Weather History Date:

Friday, January 10, 2014

  Actual Average Record
Temperature  
Mean Temperature 76 °F 64 °F  
Max Temperature 83 °F 75 °F 85 °F (1991)
Min Temperature 69 °F 54 °F 32 °F (1970)
Degree Days  
Heating Degree Days 0 4  
Month to date heating degree days 31 34  
Since 1 July heating degree days 39 112  
Cooling Degree Days 11 3  
Month to date cooling degree days 46 30  
Year to date cooling degree days 46 30  
Growing Degree Days 26 (Base 50)    
Moisture  
Dew Point 70 °F    
Average Humidity 83    
Maximum Humidity 100    
Minimum Humidity 65    
Precipitation  
Precipitation T in 0.04 in 0.65 in (1997)
Month to date precipitation 0.44 0.54  
Year to date precipitation 0.44 0.54  
Snow  
Snow 0.00 in - - ()
Month to date snowfall 0.0  
Since 1 July snowfall 0.0  
Snow Depth 0.00 in    
Sea Level Pressure  
Sea Level Pressure 30.11 in    
Wind  
Wind Speed 6 mph (East)    
Max Wind Speed 16 mph    
Max Gust Speed 18 mph    
Visibility 10 miles    
Events      
T = Trace of Precipitation, MM = Missing Value Source: NWS Daily Summary

Daily Weather History Graph

Daily Weather History Graph

Search for Another Location

Airport or City:

Trip Planner

Search our weather history database for the weather conditions in past years. The results will help you decide how hot, cold, wet, or windy it might be!

Date:

Astronomy

Jan. 10, 2014 Rise Set
Actual Time 7:16 AM EST 5:53 PM EST
Civil Twilight 6:51 AM EST 6:18 PM EST
Nautical Twilight 6:22 AM EST 6:46 PM EST
Astronomical Twilight 5:54 AM EST 7:14 PM EST
Moon 1:49 PM EST 2:31 AM EST
Length of Visible Light 11h 27m
Length of Day
10h 37m
Waxing Gibbous, 75% of the Moon is Illuminated
Jan 10
Waxing Gibbous
Jan 15
Full
Jan 24
Last Quarter
Jan 30
New
Feb 6
First Quarter

Hourly Weather History & Observations

Time (EST) Temp. Heat Index Dew Point Humidity Pressure Visibility Wind Dir Wind Speed Gust Speed Precip Events Conditions
12:53 AM 69.1 °F - 69.1 °F 100% 30.16 in 10.0 mi NE 5.8 mph - N/A   Partly Cloudy
1:53 AM 69.1 °F - 69.1 °F 100% 30.14 in 10.0 mi ENE 5.8 mph - N/A   Overcast
2:53 AM 69.1 °F - 68.0 °F 96% 30.12 in 10.0 mi ENE 3.5 mph - N/A   Scattered Clouds
3:49 AM 69.8 °F - 68.0 °F 94% 30.12 in 10.0 mi ENE 8.1 mph - N/A   Mostly Cloudy
3:53 AM 69.1 °F - 68.0 °F 96% 30.12 in 10.0 mi ENE 6.9 mph - N/A   Mostly Cloudy
4:02 AM 69.8 °F - 68.0 °F 94% 30.12 in 10.0 mi ENE 8.1 mph - N/A   Mostly Cloudy
4:15 AM 69.8 °F - 68.0 °F 94% 30.12 in 10.0 mi NE 9.2 mph - N/A   Mostly Cloudy
4:24 AM 69.8 °F - 68.0 °F 94% 30.12 in 10.0 mi ENE 8.1 mph - N/A   Mostly Cloudy
4:53 AM 69.1 °F - 68.0 °F 96% 30.12 in 10.0 mi ENE 8.1 mph - N/A   Mostly Cloudy
5:05 AM 69.8 °F - 69.8 °F 100% 30.13 in 10.0 mi ENE 5.8 mph - N/A   Mostly Cloudy
5:13 AM 69.8 °F - 69.8 °F 100% 30.13 in 10.0 mi ENE 6.9 mph - N/A   Mostly Cloudy
5:49 AM 69.8 °F - 69.8 °F 100% 30.14 in 10.0 mi ENE 3.5 mph - 0.00 in   Overcast
5:53 AM 69.1 °F - 69.1 °F 100% 30.14 in 10.0 mi ENE 4.6 mph - 0.00 in   Overcast
6:10 AM 69.8 °F - 69.8 °F 100% 30.13 in 10.0 mi East 4.6 mph - N/A   Overcast
6:32 AM 69.8 °F - 69.8 °F 100% 30.13 in 10.0 mi East 3.5 mph - N/A   Overcast
6:53 AM 69.1 °F - 69.1 °F 100% 30.13 in 10.0 mi NE 3.5 mph - N/A   Mostly Cloudy
7:11 AM 69.8 °F - 69.8 °F 100% 30.14 in 9.0 mi NE 3.5 mph - N/A   Mostly Cloudy
7:53 AM 70.0 °F - 70.0 °F 100% 30.14 in 8.0 mi East 6.9 mph - N/A   Mostly Cloudy
8:02 AM 69.8 °F - 69.8 °F 100% 30.14 in 9.0 mi East 6.9 mph - N/A   Scattered Clouds
8:53 AM 72.0 °F - 71.1 °F 97% 30.14 in 10.0 mi ESE 6.9 mph - N/A   Partly Cloudy
9:53 AM 75.0 °F - 71.1 °F 87% 30.14 in 10.0 mi ESE 6.9 mph - N/A   Clear
10:53 AM 75.0 °F - 71.1 °F 87% 30.15 in 10.0 mi SSE 6.9 mph - N/A   Clear
11:53 AM 75.9 °F - 71.1 °F 85% 30.12 in 10.0 mi ESE 4.6 mph - N/A   Clear
12:53 PM 80.1 °F 83.6 °F 71.1 °F 74% 30.09 in 10.0 mi SSE 8.1 mph - N/A   Scattered Clouds
1:53 PM 81.0 °F 84.1 °F 69.1 °F 67% 30.06 in 10.0 mi SE 11.5 mph - N/A   Mostly Cloudy
2:53 PM 82.0 °F 85.5 °F 69.1 °F 65% 30.04 in 10.0 mi SSE 11.5 mph - N/A   Clear
3:53 PM 81.0 °F 84.9 °F 71.1 °F 72% 30.04 in 10.0 mi South 9.2 mph - N/A   Scattered Clouds
4:53 PM 79.0 °F - 70.0 °F 74% 30.06 in 10.0 mi South 9.2 mph - N/A   Clear
5:53 PM 77.0 °F - 71.1 °F 82% 30.06 in 10.0 mi ESE 4.6 mph - N/A   Clear
6:53 PM 75.9 °F - 70.0 °F 82% 30.06 in 10.0 mi SE 3.5 mph - N/A   Clear
7:53 PM 75.0 °F - 70.0 °F 84% 30.08 in 10.0 mi East 5.8 mph - N/A   Clear
8:53 PM 72.0 °F - 70.0 °F 93% 30.08 in 10.0 mi SE 3.5 mph - N/A   Clear
9:53 PM 72.0 °F - 70.0 °F 93% 30.09 in 10.0 mi East 3.5 mph - N/A   Clear
10:53 PM 70.0 °F - 70.0 °F 100% 30.10 in 10.0 mi ENE 3.5 mph - N/A   Clear
11:53 PM 70.0 °F - 70.0 °F 100% 30.09 in 10.0 mi East 3.5 mph - N/A   Clear